User: anonymous   Login
Location: Unspecified
(0.0000°N, 0.0000°E)
Time: 12:15:24
(UTC+00:00)
Language:

CUTE 1.7 + AOD 2 - Orbit

View from above orbital plane
View from above orbital plane
View from above satellite
View from above satellite

Ground track
Ground track

The orbit data is extracted from the following two-line orbital elements,

1 32785U 08021C   16207.50955982  .00000382  00000-0  47675-4 0  9991
2 32785  97.6002 240.1272 0013645 163.7447 196.4211 14.87609652446321
Epoch (UTC): 25 July 2016 12:13:45
Eccentricity: 0.0013645
inclination: 97.6002°
perigee height: 596 km
apogee height: 615 km
right ascension of ascending node: 240.1272°
argument of perigee: 163.7447°
revolutions per day: 14.87609652
mean anomaly at epoch: 196.4211°
orbit number at epoch: 44632

The dashed part of the orbit path shows where the satellite is in the earth's shadow,  

DLR